Flag for Norway Weather past 2 weeks in Kristiansund, Norway

Now
50 °F

Partly sunny.


Feels Like: 50 °F
Forecast: 47 / 54 °F
Wind: 2 mph from North

Location: Kristiansund / Kvernberget

Current Time: Sep 22, 2014 at 2:34:41 PM

Latest Report: Sep 22, 2014 at 1:50 PM


Visibility: N/A

Pressure: 30.15 "Hg

Humidity: 67%

Dew point: 39 °F

Location of KristiansundLocation

Historic Weather in Kristiansund — Graph

°F

Kristiansund temperature yesterday

Maximum temperature yesterday: 54 °F (at 12:50 AM)
Minimum temperature yesterday: 45 °F (at 3:20 PM)
Average temperature yesterday: 50 °F

Past Weeks' High & Low Weather Summary

 TemperatureHumidityPressure
High72 °F (Sep 7, 2:50 PM)100% (Sep 9, 3:50 AM)30.51 "Hg (Sep 9, 3:50 AM)
Low41 °F (Sep 22, 4:20 AM)53% (Sep 7, 2:50 PM)29.80 "Hg (Sep 8, 9:50 AM)
Average55 °F86%30.15 "Hg
* Reported Sep 7 1:20 PM — Sep 22 1:20 PM, Kristiansund, Weather by CustomWeather, © 2014

Note: Actual official high and low records may vary slightly from our data, if they occured in-between our weather recording intervals... More about our weather records

Advertising

Kristiansund weather history for previous 24 hours

 ConditionsComfort  
Time TempWeatherWind HumidityBarometerVisibility
1:20 PM
Sep 22
50 °FPartly sunny.1 mph67%30.15 "HgN/A
12:50 PM50 °FPartly sunny.3 mph67%30.15 "HgN/A
12:20 PM48 °FScattered showers. Broken clouds.2 mph76%30.15 "HgN/A
11:50 AM48 °FScattered showers. Broken clouds.5 mph82%30.15 "HgN/A
11:20 AM46 °FBroken clouds.5 mph87%30.15 "HgN/A
10:50 AM46 °FBroken clouds.5 mph87%30.18 "HgN/A
10:20 AM46 °FDrizzle. Broken clouds.6 mph87%30.18 "HgN/A
9:50 AM46 °FDrizzle. Broken clouds.1 mph87%30.18 "HgN/A
9:20 AM45 °FPartly sunny.2 mph93%30.18 "HgN/A
8:50 AM45 °FLight rain. Partly sunny.2 mph93%30.15 "HgN/A
8:20 AM45 °FLight rain. Partly sunny.3 mph87%30.18 "HgN/A
7:50 AM41 °FScattered showers. Partly cloudy.2 mph93%30.15 "HgN/A
7:20 AM43 °FPartly cloudy.1 mph87%30.15 "HgN/A
6:50 AM43 °FPartly cloudy.2 mph87%30.15 "HgN/A
6:20 AM43 °FPartly cloudy.1 mph93%30.15 "HgN/A
5:50 AM43 °FPartly cloudy.1 mph93%30.15 "Hg6 mi
5:20 AM43 °FOvercast.1 mph93%30.15 "HgN/A
4:50 AM41 °FPassing clouds.No wind93%30.15 "HgN/A
4:20 AM41 °FPassing clouds.2 mph93%30.15 "HgN/A
3:50 AM43 °FPassing clouds.2 mph93%30.15 "HgN/A
3:20 AM45 °FPassing clouds.2 mph87%30.18 "HgN/A
2:50 AM43 °FLight rain. Partly cloudy.2 mph93%30.18 "Hg5 mi
2:20 AM46 °FPassing clouds.3 mph76%30.18 "HgN/A
1:50 AM45 °FPassing clouds.3 mph76%30.15 "HgN/A
1:20 AM46 °FPassing clouds.6 mph76%30.15 "HgN/A
12:50 AM45 °FPartly cloudy.7 mph81%30.15 "HgN/A
12:20 AM45 °FPassing clouds.12 mph81%30.15 "HgN/A
11:50 PM
Sep 21
45 °FPassing clouds.5 mph81%30.12 "HgN/A
11:20 PM45 °FPartly cloudy.5 mph87%30.12 "HgN/A
10:50 PM46 °FScattered showers. Partly cloudy.7 mph82%30.12 "HgN/A
10:20 PM46 °FSprinkles. Partly cloudy.10 mph76%30.09 "HgN/A
9:50 PM46 °FScattered showers. Passing clouds.12 mph76%30.09 "HgN/A
9:20 PM48 °FScattered showers. Passing clouds.6 mph76%30.09 "HgN/A
8:50 PM48 °FScattered showers. Passing clouds.7 mph71%30.09 "HgN/A
8:20 PM48 °FScattered showers. Partly sunny.9 mph76%30.07 "HgN/A
7:50 PM45 °FSprinkles. Partly sunny.2 mph93%30.07 "HgN/A
7:20 PM46 °FSprinkles. Broken clouds.9 mph82%30.07 "HgN/A
6:50 PM46 °FRain showers. Broken clouds.14 mph82%30.07 "HgN/A
6:20 PM48 °FScattered showers. Broken clouds.8 mph76%30.04 "HgN/A
5:50 PM48 °FSprinkles. Broken clouds.10 mph76%30.04 "HgN/A
5:20 PM46 °FScattered showers. Broken clouds.8 mph82%30.04 "HgN/A
4:50 PM46 °FSprinkles. Broken clouds.12 mph76%30.04 "HgN/A
4:20 PM48 °FScattered showers. Broken clouds.7 mph82%30.01 "HgN/A
3:50 PM46 °FSprinkles. Broken clouds.13 mph82%30.01 "HgN/A
3:20 PM45 °FSprinkles. Broken clouds.9 mph87%30.01 "Hg4 mi
2:50 PM48 °FSprinkles. Broken clouds.13 mph76%30.01 "HgN/A
2:20 PM52 °FScattered showers. Broken clouds.9 mph62%30.01 "HgN/A
Weather by CustomWeather, © 2014

See weather overviewHow to use our weather pages